Résultats de la compétition "Moyenne distance avant la Nationale NE Dijon 27/03/2010" du 27-03-2010 organisée par le club 2109
     
  Télécharger le fichier CSV.  
     
     

 Circuit "E"

Licence Nom Prénom Temps CN
précédent
Score sur
la course
Différence
18120CHABANCEThomas0:14:4240913911-180
12358RINGOTPaul0:14:4635773893+316
8975PERRINArnaud0:15:1241693782-387
16228VERCAUTERENAntoine0:15:1740073762-245
16648JANANDPierre-Louis0:16:2029213520+599
10184BODYMathilde0:16:2628913499+608
10396HABERKORNChloé0:16:3338213474-347
16199BALLASValentin0:17:0703359N/A
20315MATHISMartin0:18:1027023165+463
19276PETER-JANLucile0:18:4332733072-201
13926GODEFROYSimon0:19:0330403018-22
16307SCHAPPACHERWilliam0:19:1627272984+257
12776BOUSSERThomas0:19:3626582933+275
14684MERIGUETThomas0:19:3829332928-5
9402BORNARDJulie0:19:5819892879+890
19689GIRARDLucille0:20:0927412853+112
19413HANAUERSébastien0:20:3834332786-647
20099MAURINEdouard0:20:5322302753+523
13638KORCHAKNathalie0:21:0030522738-314
21387CORNUGuillaume0:21:1822162699+483
20127MADECThéo0:21:4334212647-774
11508LEBIHANBarbara0:21:5228962629-267
20271LE CALVEZVincent0:22:2821502559+409
23352LAURENTEmilien0:22:41N/A2535N/A
19767LOPEZEtienne0:22:4523732527+154
23064LUSTGARTENTom0:23:08N/A2485N/A
12709BEAUVIRMaelle0:23:1125212480-41
14770TOULIER--ANCIANLucas0:23:2035432464-1079
13625SIMONAntoine0:23:2314962459+963
19401VIVIER-BOUDRIERThéo0:23:2825882450-138
19275DAVIGNONFlavien0:23:4833412416-925
15018GUINOTMarion0:24:0832322382-850
20364GUILLOTJeanne0:24:2816542350+696
11542BONORAMarine0:25:1320642280+216
23285JOURDANAurélien0:25:24N/A2264N/A
22451RIVOLLIERIsaline0:25:2902256N/A
9172POULAINGael0:25:3329972250-747
20298LE BIHANJonathan0:25:3520972247+150
23015LEICHTTheo0:26:32N/A2167N/A
23282BONNAVEIRAFabien0:26:42N/A2153N/A
10758BESTELSandra0:27:3726242082-542
22925GROSSIKurtys0:27:45N/A2072N/A
13477DIETSCHJoel0:27:4827732068-705
20273LOPEZGaëtan0:28:4322902002-288
19399MARLIACQuentin0:30:0616981910+212
15412ASTRADEBaptiste0:30:1227111904-807
22433MALAKNathan0:30:1817521897+145
22251FAVIERMaxence0:30:3814001877+477
22447LALOUXClément0:31:0812931847+554
20952LOUCHARTVictor0:31:3326431822-821
12999MOUTAULTAnais0:32:3611111764+653
12589KERN-GILLARDNicolas0:34:03N/A1689N/A
22250PARENTMathilde0:34:3113341666+332
23281HABAUZITQuentin0:38:09N/A1507N/A
23014VELUAntoine0:40:23N/A1424N/A
23283CRESPINAlexis0:55:12N/A1042N/A
23187NORBURYBrett0:55:13N/A1041N/A
23276SALOMONVincentN/AN/A0N/A
22315CHARDOTMarionN/A20240-2024
10910COLINLeoN/A24470-2447

  Indice de confiance du circuit (moyenne des différences entre CN et score sur la course des 3 à 10 premiers) : 112






 Retour